Location: Karcze
(52.0945°N, 22.4786°E)
Time: 00:20:05
(UTC+00:00)

A-11 Canister half - Pass Details

Date: 02 August 2021
Orbit: 1515 x 1685 km, 47.2° (Epoch: 19 September)

Event Time Altitude Azimuth Distance (km) Brightness Sun altitude
Rises 16:29:10 0° 243° (WSW) 4,799 12.5 14.9°
Reaches altitude 10° 16:32:16 10° 240° (WSW) 3,838 12.0 14.4°
Maximum altitude 16:41:52 61° 164° (SSE) 1,843 9.5 13.0°
Drops below altitude 10° 16:51:45 10° 88° (E) 3,945 10.6 11.5°
Sets 16:54:59 0° 85° (E) 4,941 11.1 11.0°
